Location: Laas
(43.4693°N, 0.3073°E)
Time: 15:49:05
(UTC+00:00)

Geosat - Pass Details

Date: 25 October 2020
Orbit: 763 x 766 km, 108.0° (Epoch: 23 November)

Event Time Altitude Azimuth Distance (km) Brightness Sun altitude
Exits shadow 18:40:17 10° 29° (NNE) 2,308 6.2 -18.9°
Maximum altitude 18:45:20 82° 117° (ESE) 779 3.9 -19.8°
Drops below altitude 10° 18:50:21 10° 205° (SSW) 2,297 6.7 -20.7°
Sets 18:52:37 0° 206° (SSW) 3,219 7.5 -21.2°
